Location: Biltmore Gardens
(41.6070°N, 83.4666°W)
Time: 13:55:40
(UTC+00:00)

Cosmos 2242 Rocket - Pass Details

Date: 14 July 2020
Orbit: 619 x 651 km, 82.5° (Epoch: 04 August)

Event Time Altitude Azimuth Distance (km) Brightness Sun altitude
Rises 06:34:33 0° 352° (N) 2,973 8.2 -25.5°
Reaches altitude 10° 06:36:50 10° 354° (N) 2,055 7.1 -25.4°
Enters shadow 06:41:16 81° 49° (NE) 657 3.6 -25.2°
